Flag for Canada Weather past 2 weeks in Chibougamau, Quebec, Canada

Now
18 °F

Partly sunny.


Feels Like: 8 °F
Forecast: 6 / 18 °F
Wind: 7 mph from North

Location: Chibougamau-Chapais

Current Time: Dec 18, 2014 at 12:04:54 PM

Latest Report: Dec 18, 2014 at 11:00 AM


Visibility: 15 mi

Pressure: 30.00 "Hg

Humidity: 93%

Dew point: 16 °F

Location of ChibougamauLocation

Historic Weather in Chibougamau — Graph

°F

Chibougamau temperature yesterday

Maximum temperature yesterday: 23 °F (at 6:00 AM)
Minimum temperature yesterday: 21 °F (at 8:00 AM)
Average temperature yesterday: 21 °F

Past Weeks' High & Low Weather Summary

 TemperatureHumidityPressure
High27 °F (Dec 12, 12:00 PM)100% (Dec 11, 7:00 PM)30.80 "Hg (Dec 11, 7:00 PM)
Low-18 °F (Dec 7, 6:00 AM)59% (Dec 4, 12:00 PM)29.64 "Hg (Dec 3, 4:00 PM)
Average15 °F86%30.15 "Hg
* Reported Dec 3 10:00 AM — Dec 18 10:00 AM, Chibougamau, Weather by CustomWeather, © 2014

Note: Actual official high and low records may vary slightly from our data, if they occured in-between our weather recording intervals... More about our weather records

Advertising

Chibougamau weather history for previous 24 hours

 ConditionsComfort  
Time TempWeatherWind HumidityBarometerVisibility
10:00 AM
Dec 18
18 °FOvercast.9 mph93%30.00 "Hg15 mi
9:00 AM18 °FMore clouds than sun.10 mph93%29.99 "Hg15 mi
8:50 AM18 °FLow clouds.9 mph93%29.98 "Hg15 mi
8:00 AM18 °FLow clouds.9 mph93%29.98 "Hg15 mi
7:00 AM19 °FLow clouds.8 mph93%29.98 "Hg15 mi
6:00 AM19 °FLow clouds.6 mph93%29.97 "Hg15 mi
9:00 PM
Dec 17
21 °FLight snow. Overcast.6 mph93%29.93 "Hg4 mi
8:00 PM21 °FLight snow. Mostly cloudy.6 mph93%29.93 "Hg4 mi
7:00 PM21 °FLight snow. Overcast.5 mph93%29.93 "Hg4 mi
6:00 PM21 °FLight snow. Overcast.3 mph93%29.93 "Hg6 mi
5:00 PM21 °FMostly cloudy.5 mph93%29.92 "Hg15 mi
4:00 PM21 °FLow clouds.5 mph93%29.92 "Hg15 mi
3:00 PM21 °FOvercast.8 mph93%29.91 "Hg15 mi
2:00 PM21 °FLight snow. Overcast.8 mph100%29.91 "Hg14 mi
1:00 PM21 °FLight snow. Overcast.7 mph100%29.91 "Hg14 mi
12:00 PM21 °FLight snow. Overcast.8 mph93%29.93 "Hg13 mi
Weather by CustomWeather, © 2014

See weather overviewHow to use our weather pages